Location: Santa Fe
(35.6870°N, 105.9370°W)
Time: 01:02:24
(UTC-06:00)

Amateur Radio Satellites - All Passes

Search period start: 24 October 2014 00:32
Search period end: 25 October 2014 00:32
Location: Santa Fe, 35.6870°N, 105.9370°W

Satellite Date Start Highest point End Downlink Frequencies (MHz)
Time Altitude Azimuth
RS-15 24 Oct 00:34:17 00:44:01 35° 315° (NW) 00:53:48 29.354 - 29.394 USB, Beacon 29.352 USB
Oscar 10/S400 24 Oct 00:53:43 02:03:47 29° 239° (WSW) 05:37:24 145.825 - 145.975 CW/USB, Beacon 145.810 USB
UOSAT-12 24 Oct 01:01:52 01:06:15 40° 246° (WSW) 01:10:34 437.025 FM, 437.400 FM
MaSat-1 24 Oct 01:02:22 01:05:41 23° 299° (WNW) 01:08:47 437.345 MHz
JAS-1B 24 Oct 01:28:38 01:33:37 20° 96° (E) 01:39:08 435.800 - 435.900 CW/SSB
Oscar 19 24 Oct 01:30:57 01:34:05 16° 93° (E) 01:37:12 437.125 CW, 437.150 USB
Oscar 16 24 Oct 02:15:05 02:20:02 48° 100° (E) 02:24:57 437.025 USB, Beacon 2401.1428
AO-Echo 24 Oct 02:18:17 02:22:45 27° 96° (E) 02:27:10 ?
Uribyol 2 24 Oct 02:33:20 02:37:50 29° 97° (E) 02:42:17 436.500 FM
ITAMSAT 1 24 Oct 02:39:02 02:43:39 31° 97° (E) 02:48:12 435.822 SSB
Gurwin Techsat 1B 24 Oct 02:53:47 02:57:53 22° 95° (E) 03:01:58 435.225 FM
RS-15 24 Oct 02:56:35 03:01:13 13° 348° (NNW) 03:05:54 29.354 - 29.394 USB, Beacon 29.352 USB
TMSAT-1 24 Oct 03:05:44 03:09:42 21° 94° (E) 03:13:39 436.925 FM
Oscar 19 24 Oct 03:08:44 03:13:40 50° 287° (WNW) 03:18:34 437.125 CW, 437.150 USB
JAS-1B 24 Oct 03:17:39 03:24:20 67° 286° (WNW) 03:32:21 435.800 - 435.900 CW/SSB
AO-27 24 Oct 03:23:56 03:29:12 90° 103° (ESE) 03:34:25 436.795 MHz FM
Sapphire 24 Oct 03:52:04 03:57:12 47° 111° (ESE) 04:02:23 437.095 MHz 1200 baud AX-25 AFSK
Oscar 16 24 Oct 03:55:36 03:58:58 18° 295° (WNW) 04:02:19 437.025 USB, Beacon 2401.1428
AO-Echo 24 Oct 03:56:44 04:01:27 33° 290° (WNW) 04:06:10 ?
Uribyol 2 24 Oct 04:12:45 04:17:12 29° 291° (WNW) 04:21:37 436.500 FM
PCSat 24 Oct 04:14:24 04:19:47 83° 115° (ESE) 04:25:14 145.825 MHz
ITAMSAT 1 24 Oct 04:18:37 04:22:59 28° 292° (WNW) 04:27:20 435.822 SSB
AO-7 24 Oct 04:22:52 04:29:53 29° 97° (E) 04:36:51 29.400 - 29.500 MHz
Gurwin Techsat 1B 24 Oct 04:33:01 04:37:55 39° 289° (WNW) 04:42:48 435.225 FM
OPAL 24 Oct 04:43:29 04:48:03 33° 68° (ENE) 04:52:35 ?
TMSAT-1 24 Oct 04:44:47 04:49:44 41° 289° (WNW) 04:54:39 436.925 FM
RS-15 24 Oct 05:13:15 05:20:22 18° 27° (NNE) 05:27:36 29.354 - 29.394 USB, Beacon 29.352 USB
Sapphire 24 Oct 05:36:39 05:40:50 22° 308° (NW) 05:45:03 437.095 MHz 1200 baud AX-25 AFSK
Uosat F 24 Oct 05:40:27 05:45:31 82° 284° (WNW) 05:50:33 435.120 FM
Hamsat 24 Oct 05:48:08 05:50:14 14° 93° (E) 05:52:20 145.90 MHz
JAS-2 24 Oct 05:53:27 06:00:45 41° 97° (E) 06:07:57 435.800 - 435.900 CW/SSB, 435.910 FM
PCSat 24 Oct 06:01:06 06:03:53 14° 313° (NW) 06:06:40 145.825 MHz
AO-7 24 Oct 06:14:52 06:22:54 55° 293° (WNW) 06:30:56 29.400 - 29.500 MHz
OPAL 24 Oct 06:22:38 06:26:53 26° 262° (W) 06:31:08 ?
STRAND 1 24 Oct 06:26:38 06:31:09 33° 69° (ENE) 06:35:42 ?
Saudisat 1A 24 Oct 06:38:44 06:40:01 11° 107° (ESE) 06:41:18 436.775 MHz
Hamsat 24 Oct 07:22:23 07:26:19 40° 286° (WNW) 07:30:16 145.90 MHz
RS-15 24 Oct 07:24:46 07:35:48 59° 55° (NE) 07:47:16 29.354 - 29.394 USB, Beacon 29.352 USB
SO-67 24 Oct 07:32:17 07:35:10 24° 96° (E) 07:38:02 435.3500 MHz FM
JAS-2 24 Oct 07:38:30 07:45:34 40° 292° (WNW) 07:52:38 435.800 - 435.900 CW/SSB, 435.910 FM
PANSAT 24 Oct 07:45:03 07:47:38 17° 165° (SSE) 07:50:14 not established
STRAND 1 24 Oct 08:06:07 08:10:18 25° 264° (W) 08:14:32 ?
Saudisat 1A 24 Oct 08:14:42 08:19:01 60° 302° (WNW) 08:23:23 436.775 MHz
SO-67 24 Oct 09:05:57 09:07:54 15° 290° (WNW) 09:09:50 435.3500 MHz FM
MaSat-1 24 Oct 09:16:08 09:17:28 13° 58° (ENE) 09:18:44 437.345 MHz
PANSAT 24 Oct 09:24:01 09:27:17 27° 177° (S) 09:30:34 not established
HO-68 24 Oct 09:37:05 09:43:59 47° 100° (E) 09:50:50 435.675 MHz FM
Oscar 11 24 Oct 09:37:22 09:38:38 11° 92° (E) 09:39:52 145.825 FM, Beacon 2401.500 USB
RS-15 24 Oct 09:37:46 09:47:39 37° 253° (WSW) 09:57:58 29.354 - 29.394 USB, Beacon 29.352 USB
ZACube-1 24 Oct 10:23:47 10:26:20 16° 93° (E) 10:28:52 437.345 MHz
UKube-1 24 Oct 10:28:46 10:33:02 51° 100° (E) 10:37:16 145.840 MHz, 145.915 MHz
KITSAT 1 24 Oct 10:41:24 10:44:16 12° 99° (E) 10:47:08 435.175 FM
MaSat-1 24 Oct 10:52:17 10:52:52 11° 256° (WSW) 10:53:27 437.345 MHz
PANSAT 24 Oct 11:03:58 11:06:59 22° 190° (S) 11:10:00 not established
FUNcube-1 24 Oct 11:07:22 11:11:31 53° 100° (E) 11:15:34 145.950 - 145.970 MHz USB
Oscar 10/S400 24 Oct 11:08:56 11:33:35 25° 154° (SSE) 11:47:59 145.825 - 145.975 CW/USB, Beacon 145.810 USB
Oscar 11 24 Oct 11:10:53 11:15:04 51° 286° (WNW) 11:19:14 145.825 FM, Beacon 2401.500 USB
HO-68 24 Oct 11:25:19 11:31:22 30° 296° (WNW) 11:37:23 435.675 MHz FM
ZACube-1 24 Oct 11:59:00 12:02:51 34° 288° (WNW) 12:06:38 437.345 MHz
SO-50 24 Oct 12:05:50 12:08:31 16° 108° (ESE) 12:11:14 436.795 FM
UKube-1 24 Oct 12:06:50 12:08:44 13° 295° (WNW) 12:10:38 145.840 MHz, 145.915 MHz
KITSAT 1 24 Oct 12:30:19 12:38:22 79° 115° (ESE) 12:46:28 435.175 FM
ISS 24 Oct 12:41:50 12:45:07 64° 136° (SE) 12:48:25 145.800 FM
Sapphire 24 Oct 12:43:28 12:47:39 22° 52° (NE) 12:51:49 437.095 MHz 1200 baud AX-25 AFSK
Oscar 19 24 Oct 12:45:11 12:48:42 19° 66° (ENE) 12:52:13 437.125 CW, 437.150 USB
FUNcube-1 24 Oct 12:46:08 12:47:22 11° 295° (WNW) 12:48:35 145.950 - 145.970 MHz USB
AO-27 24 Oct 13:04:02 13:05:34 11° 61° (ENE) 13:07:05 436.795 MHz FM
PCSat 24 Oct 13:05:33 13:10:32 36° 57° (ENE) 13:15:28 145.825 MHz
AO-Echo 24 Oct 13:28:50 13:32:42 24° 67° (ENE) 13:36:40 ?
Oscar 16 24 Oct 13:29:06 13:34:06 52° 73° (ENE) 13:39:06 437.025 USB, Beacon 2401.1428
UOSAT-12 24 Oct 13:33:45 13:34:46 11° 106° (ESE) 13:35:46 437.025 FM, 437.400 FM
SO-50 24 Oct 13:44:20 13:48:37 45° 304° (NW) 13:53:03 436.795 FM
Uribyol 2 24 Oct 13:48:21 13:52:59 33° 69° (ENE) 13:57:38 436.500 FM
ITAMSAT 1 24 Oct 13:54:12 13:58:54 36° 70° (ENE) 14:03:37 435.822 SSB
JAS-1B 24 Oct 14:01:11 14:07:20 83° 75° (ENE) 14:13:02 435.800 - 435.900 CW/SSB
Gurwin Techsat 1B 24 Oct 14:12:05 14:16:29 27° 68° (ENE) 14:20:53 435.225 FM
ISS 24 Oct 14:19:58 14:22:06 16° 332° (NNW) 14:24:14 145.800 FM
Oscar 19 24 Oct 14:22:43 14:27:40 46° 260° (W) 14:32:37 437.125 CW, 437.150 USB
TMSAT-1 24 Oct 14:23:42 14:27:59 26° 68° (ENE) 14:32:17 436.925 FM
Sapphire 24 Oct 14:26:06 14:31:19 48° 249° (WSW) 14:36:29 437.095 MHz 1200 baud AX-25 AFSK
KITSAT 1 24 Oct 14:28:24 14:34:36 24° 315° (NW) 14:40:51 435.175 FM
AO-27 24 Oct 14:39:07 14:44:19 81° 257° (WSW) 14:49:35 436.795 MHz FM
PCSat 24 Oct 14:49:14 14:53:45 27° 253° (WSW) 14:58:14 145.825 MHz
AO-Echo 24 Oct 15:06:57 15:11:16 32° 263° (W) 15:15:44 ?
UOSAT-12 24 Oct 15:09:39 15:14:15 69° 301° (WNW) 15:18:57 437.025 FM, 437.400 FM
Oscar 16 24 Oct 15:10:41 15:13:42 16° 267° (W) 15:16:45 437.025 USB, Beacon 2401.1428
Uosat F 24 Oct 15:16:42 15:17:40 11° 61° (ENE) 15:18:38 435.120 FM
AO-7 24 Oct 15:19:02 15:26:04 32° 61° (ENE) 15:33:06 29.400 - 29.500 MHz
Uribyol 2 24 Oct 15:28:09 15:32:26 26° 264° (W) 15:36:44 436.500 FM
ITAMSAT 1 24 Oct 15:34:16 15:38:24 24° 265° (W) 15:42:35 435.822 SSB
Gurwin Techsat 1B 24 Oct 15:51:34 15:56:17 32° 263° (W) 16:01:02 435.225 FM
TMSAT-1 24 Oct 16:02:55 16:07:42 34° 263° (W) 16:12:31 436.925 FM
JAS-2 24 Oct 16:07:48 16:08:58 11° 55° (NE) 16:10:09 435.800 - 435.900 CW/SSB, 435.910 FM
Saudisat 1A 24 Oct 16:44:04 16:48:20 45° 56° (ENE) 16:52:33 436.775 MHz
Uosat F 24 Oct 16:50:42 16:55:43 81° 257° (WSW) 17:00:46 435.120 FM
AO-7 24 Oct 17:10:28 17:18:27 52° 258° (WSW) 17:26:30 29.400 - 29.500 MHz
JAS-2 24 Oct 17:46:52 17:52:38 77° 74° (ENE) 17:59:13 435.800 - 435.900 CW/SSB, 435.910 FM
Hamsat 24 Oct 18:12:15 18:16:28 86° 258° (WSW) 18:20:41 145.90 MHz
Saudisat 1A 24 Oct 18:24:53 18:27:29 16° 251° (WSW) 18:30:05 436.775 MHz
OPAL 24 Oct 18:34:26 18:39:24 77° 287° (WNW) 18:44:19 ?
STRAND 1 24 Oct 18:41:41 18:44:11 14° 92° (E) 18:46:41 ?
ISS 24 Oct 19:13:12 19:15:59 24° 32° (NNE) 19:18:44 145.800 FM
SO-67 24 Oct 19:34:04 19:37:29 72° 259° (W) 19:40:55 435.3500 MHz FM
JAS-2 24 Oct 19:36:05 19:38:36 13° 273° (W) 19:41:14 435.800 - 435.900 CW/SSB, 435.910 FM
HO-68 24 Oct 20:03:25 20:09:09 27° 62° (ENE) 20:14:54 435.675 MHz FM
STRAND 1 24 Oct 20:18:39 20:23:43 60° 286° (WNW) 20:28:45 ?
KITSAT 1 24 Oct 20:27:35 20:33:59 25° 46° (NE) 20:40:19 435.175 FM
ISS 24 Oct 20:49:41 20:52:41 32° 228° (SW) 20:55:41 145.800 FM
ZACube-1 24 Oct 21:19:11 21:20:19 11° 65° (ENE) 21:21:28 437.345 MHz
UKube-1 24 Oct 21:21:34 21:25:23 31° 71° (ENE) 21:29:13 145.840 MHz, 145.915 MHz
RS-15 24 Oct 21:44:51 21:55:15 49° 110° (ESE) 22:05:28 29.354 - 29.394 USB, Beacon 29.352 USB
HO-68 24 Oct 21:49:28 21:56:24 54° 259° (WSW) 22:03:25 435.675 MHz FM
FUNcube-1 24 Oct 22:00:40 22:04:43 32° 72° (ENE) 22:08:44 145.950 - 145.970 MHz USB
Oscar 11 24 Oct 22:02:34 22:06:54 83° 77° (ENE) 22:11:15 145.825 FM, Beacon 2401.500 USB
SO-50 24 Oct 22:18:15 22:23:07 71° 59° (ENE) 22:27:59 436.795 FM
KITSAT 1 24 Oct 22:22:04 22:30:08 75° 246° (WSW) 22:38:09 435.175 FM
MaSat-1 24 Oct 22:50:16 22:52:25 14° 105° (ESE) 22:54:29 437.345 MHz
ZACube-1 24 Oct 22:51:33 22:56:08 67° 259° (W) 23:00:40 437.345 MHz
UKube-1 24 Oct 22:58:26 23:01:34 19° 265° (W) 23:04:44 145.840 MHz, 145.915 MHz
FUNcube-1 24 Oct 23:37:37 23:41:05 21° 265° (W) 23:44:31 145.950 - 145.970 MHz USB
UOSAT-12 24 Oct 23:42:09 23:46:41 45° 56° (NE) 23:51:07 437.025 FM, 437.400 FM
RS-15 24 Oct 23:57:14 00:07:34 45° 310° (NW) 00:17:56 29.354 - 29.394 USB, Beacon 29.352 USB
SO-50 25 Oct 00:01:31 00:03:04 11° 253° (WSW) 00:04:37 436.795 FM
KITSAT 1 25 Oct 00:22:10 00:24:09 11° 261° (W) 00:26:09 435.175 FM
MaSat-1 25 Oct 00:23:50 00:27:47 40° 296° (WNW) 00:31:26 437.345 MHz
